Regional Weather Roundup
Issued by NWS Memphis, TN

Home | Current Version | Previous Version | Text Only | Print | Product List | Glossary On
Versions: 1 2 3 4 5 6 7 8 9 10 11 12 13 14 15 16 17 18 19 20 21 22 23 24 25 26 27 28 29 30 31 32 33 34 35 36 37 38 39 40 41 42 43 44 45 46 47 48 49 50
000
ASUS44 KMEG 310210
RWRMEG
MEMPHIS CWA HOURLY WEATHER ROUNDUP
NATIONAL WEATHER SERVICE MEMPHIS TN
900 PM CDT MON MAY 30 2016

...WEST TENNESSEE...

CITY           SKY/WX    TMP DP  RH WIND       PRES   REMARKS
MEMPHIS INTL   MOCLDY    83  63  50 E6        29.96S
NWS MEMPHIS      N/A     76 N/A N/A MISG        N/A
JACKSON        CLEAR     72  64  76 CALM      29.97S
LEXINGTON      CLEAR     72  68  88 CALM      29.98R
DYERSBURG      CLEAR     77  66  69 CALM      29.97R
UNION CITY     CLEAR     75  66  73 CALM      29.96S
PARIS          CLEAR     68  63  83 CALM      29.99S


...EASTERN ARKANSAS...

CITY           SKY/WX    TMP DP  RH WIND       PRES   REMARKS
JONESBORO      CLOUDY    77  69  76 N7        29.95F
WEST MEMPHIS   CLOUDY    79  66  64 NE5       29.95S
BATESVILLE     CLOUDY    66  63  88 NE7       29.99F
NEWPORT        CLOUDY    71  70  97 NW8       29.98R
WALNUT RIDGE   CLOUDY    72  66  83 NW8       29.97F
BLYTHEVILLE    CLOUDY    80  68  66 NE5       29.96F
SEARCY         TSTM      66  66 100 SW8       30.05R FOG
STUTTGART      CLOUDY    68  61  77 S8        30.02F
MONTICELLO     PTCLDY    71  66  84 VRB3      29.97F


...NORTH MISSISSIPPI...

CITY           SKY/WX    TMP DP  RH WIND       PRES   REMARKS
TUPELO         CLEAR     79  61  53 NW3       29.95R
OXFORD         CLEAR     73  66  78 NE3       29.98R
BATESVILLE     CLOUDY    76  71  84 CALM      29.97R
OLIVE BRANCH   CLEAR     77  70  78 CALM      29.97R
TUNICA         CLOUDY    79  70  73 CALM      29.96S
CLARKSDALE     MOCLDY    79  70  73 CALM      29.96S
CORINTH        CLEAR     73  64  73 CALM      29.96R
GREENWOOD      CLOUDY    78  64  61 N3        29.95R
COLUMBUS       CLEAR     75  70  84 CALM      29.93R
STARKVILLE     PTCLDY    73  64  73 CALM      29.94R
GOLDEN TRIANGL PTCLDY    81  63  54 NW3       29.94R


...SOUTHEAST MISSOURI...

CITY           SKY/WX    TMP DP  RH WIND       PRES   REMARKS
KENNETT        CLOUDY    79  66  65 N5        29.95F
WEST PLAINS    CLOUDY    65  61  87 CALM      30.03F
POPLAR BLUFF   CLOUDY    76  71  85 CALM      29.96F
CAPE GIRARDEAU PTCLDY    72  67  84 CALM      29.97S


...NORTHWEST ALABAMA...

CITY           SKY/WX    TMP DP  RH WIND       PRES   REMARKS
MUSCLE SHOALS  CLEAR     79  60  52 N5        29.97R


...MIDDLE TENNESSEE...

CITY           SKY/WX    TMP DP  RH WIND       PRES   REMARKS
NASHVILLE      PTCLDY    79  57  46 CALM      29.98R
CLARKSVILLE    CLEAR     75  59  57 CALM      29.98S
COLUMBIA       CLEAR     72  70  94 CALM      29.98R


...WESTERN KENTUCKY...

CITY           SKY/WX    TMP DP  RH WIND       PRES   REMARKS
PADUCAH        CLEAR     73  64  73 CALM      29.97S


...CENTRAL ARKANSAS...

CITY           SKY/WX    TMP DP  RH WIND       PRES   REMARKS
LITTLE ROCK    LGT RAIN  68  64  87 E7        29.98F


SKY/WX REPORTED AS FAIR MEANS FEW OR NO CLOUDS BELOW
12 THOUSAND FEET.





USA.gov is the U.S. government's official web portal to all federal, state and local government web resources and services.